CW9067 Weather Reports


time (UTC)temp
C
wind
direction
speed
KPH
gust
KPH
rain 1hr
cm
rain 24hr
cm
rain mn
cm
humidity
%
barometer
mb
20260506160239 20 278 4.8 11.3 0.00 0.00 0.00 37 1017.4
20260506155739 19 283 6.4 11.3 0.00 0.00 0.00 37 1017.4
20260506155239 19 205 6.4 16.1 0.00 0.00 0.00 38 1017.3
20260506154738 19 254 6.4 16.1 0.00 0.00 0.00 39 1017.3
20260506154240 18 282 9.7 16.1 0.00 0.00 0.00 40 1017.3
20260506153739 18 260 8.0 16.1 0.00 0.00 0.00 40 1017.3
20260506153238 18 240 6.4 12.9 0.00 0.00 0.00 41 1017.3
20260506152738 18 258 6.4 11.3 0.00 0.00 0.00 42 1017.3
20260506152238 17 274 6.4 16.1 0.00 0.00 0.00 43 1017.3
20260506151739 17 228 4.8 16.1 0.00 0.00 0.00 44 1017.3
20260506151236 17 262 6.4 12.9 0.00 0.00 0.00 44 1017.2
20260506150738 16 288 8.0 14.5 0.00 0.00 0.00 45 1017.2
20260506150238 16 225 8.0 14.5 0.00 0.00 0.00 46 1017.2
20260506150234 16 223 6.4 14.5 0.00 0.00 0.00 47 1017.2
20260506145236 15 238 6.4 14.5 0.00 0.00 0.00 47 1017.2
20260506144734 15 268 6.4 14.5 0.00 0.00 0.00 48 1017.1
20260506144234 15 238 8.0 14.5 0.00 0.00 0.00 49 1017.2
20260506143735 15 240 8.0 14.5 0.00 0.00 0.00 49 1017.2
20260506143235 15 257 6.4 14.5 0.00 0.00 0.00 49 1017.1
20260506142735 14 246 6.4 14.5 0.00 0.00 0.00 51 1017.0
20260506142234 14 257 6.4 14.5 0.00 0.00 0.00 52 1017.0
20260506141734 13 248 6.4 16.1 0.00 0.00 0.00 52 1016.8
20260506141238 13 218 11.3 16.1 0.00 0.00 0.00 54 1016.6
20260506141233 13 225 9.7 16.1 0.00 0.00 0.00 53 1016.7
20260506140232 13 176 9.7 16.1 0.00 0.00 0.00 55 1016.6
20260506135732 13 230 9.7 17.7 0.00 0.00 0.00 56 1016.5
20260506135232 12 226 11.3 17.7 0.00 0.00 0.00 56 1016.5
20260506134733 12 243 9.7 27.4 0.00 0.00 0.00 56 1016.5
20260506134234 12 254 12.9 27.4 0.00 0.00 0.00 56 1016.3
20260506133733 12 265 17.7 27.4 0.00 0.00 0.00 56 1016.3
20260506133238 11 222 12.9 25.7 0.00 0.00 0.00 57 1015.9
20260506133232 12 235 16.1 27.4 0.00 0.00 0.00 56 1016.0
20260506132231 11 244 11.3 20.9 0.00 0.00 0.00 57 1015.9
20260506131730 11 275 12.9 20.9 0.00 0.00 0.00 57 1015.9
20260506131235 11 246 12.9 19.3 0.00 0.00 0.00 57 1015.7
20260506131231 11 240 12.9 20.9 0.00 0.00 0.00 57 1015.9
20260506130230 11 238 12.9 24.1 0.00 0.00 0.00 57 1015.7
20260506125731 12 251 14.5 24.1 0.00 0.00 0.00 56 1015.7
20260506125230 12 241 17.7 24.1 0.00 0.00 0.00 56 1015.6
20260506124732 12 259 17.7 24.1 0.00 0.00 0.00 56 1015.5
20260506124234 12 223 17.7 27.4 0.00 0.00 0.00 57 1015.2
20260506124230 11 233 16.1 27.4 0.00 0.00 0.00 57 1015.3
20260506123231 11 222 19.3 27.4 0.00 0.00 0.00 57 1015.2
20260506122730 11 226 16.1 27.4 0.00 0.00 0.00 57 1015.1
20260506122234 12 217 16.1 25.7 0.00 0.00 0.00 57 1015.2
20260506122230 11 216 16.1 25.7 0.00 0.00 0.00 57 1015.0
20260506121230 12 222 17.7 29.0 0.00 0.00 0.00 57 1015.2
20260506120730 12 211 19.3 29.0 0.00 0.00 0.00 56 1015.1
20260506120235 12 229 20.9 29.0 0.00 0.00 0.00 58 1014.9
20260506120230 12 237 19.3 29.0 0.00 0.00 0.00 57 1015.0
20260506115230 12 220 20.9 30.6 0.00 0.00 0.00 58 1015.0
20260506114730 12 233 20.9 30.6 0.00 0.00 0.00 58 1015.0
20260506114230 12 219 22.5 30.6 0.00 0.00 0.00 58 1014.9
20260506113730 12 258 20.9 30.6 0.00 0.00 0.00 58 1014.9
20260506113231 12 226 20.9 30.6 0.00 0.00 0.00 59 1014.9
20260506112729 12 225 20.9 30.6 0.00 0.00 0.00 58 1014.9
20260506112230 12 212 19.3 29.0 0.00 0.00 0.00 57 1014.8
20260506111730 12 212 17.7 29.0 0.00 0.00 0.00 57 1014.9
20260506111230 12 239 19.3 27.4 0.00 0.00 0.00 57 1014.8
20260506110729 12 215 20.9 27.4 0.00 0.00 0.00 57 1014.8
20260506110230 12 228 19.3 29.0 0.00 0.00 0.00 56 1014.8
20260506105731 12 225 19.3 29.0 0.00 0.00 0.00 56 1014.8
20260506105229 12 221 19.3 30.6 0.00 0.00 0.00 56 1014.8
20260506104735 12 212 19.3 30.6 0.00 0.00 0.00 57 1014.7
20260506104731 12 207 19.3 30.6 0.00 0.00 0.00 56 1014.7
20260506103733 12 222 17.7 30.6 0.00 0.00 0.00 57 1014.6
20260506103729 12 225 19.3 30.6 0.00 0.00 0.00 57 1014.6
20260506102729 12 200 16.1 29.0 0.00 0.00 0.00 57 1014.6
20260506102230 12 234 14.5 24.1 0.00 0.00 0.00 57 1014.7
20260506101735 12 217 9.7 17.7 0.00 0.00 0.00 56 1014.7
20260506101729 12 213 11.3 19.3 0.00 0.00 0.00 57 1014.6
20260506100731 12 196 9.7 17.7 0.00 0.00 0.00 56 1014.7
20260506100229 12 232 11.3 20.9 0.00 0.00 0.00 56 1014.7
20260506095729 12 186 11.3 20.9 0.00 0.00 0.00 56 1014.6
20260506095227 12 203 11.3 19.3 0.00 0.00 0.00 56 1014.6
20260506094727 12 204 12.9 25.7 0.00 0.00 0.00 56 1014.5
20260506094227 12 220 12.9 25.7 0.00 0.00 0.00 56 1014.4
20260506093729 12 232 11.3 24.1 0.00 0.00 0.00 56 1014.4
20260506093228 12 227 12.9 24.1 0.00 0.00 0.00 56 1014.4
20260506092729 12 183 14.5 24.1 0.00 0.00 0.00 56 1014.4
20260506092229 12 228 14.5 24.1 0.00 0.00 0.00 56 1014.4
20260506091727 12 213 16.1 24.1 0.00 0.00 0.00 56 1014.3
20260506091229 12 218 14.5 22.5 0.00 0.00 0.00 57 1014.3
20260506090729 12 215 14.5 22.5 0.00 0.00 0.00 57 1014.4
20260506090231 12 203 17.7 24.1 0.00 0.00 0.00 57 1014.4
20260506090227 12 226 16.1 22.5 0.00 0.00 0.00 57 1014.4
20260506085227 12 221 17.7 25.7 0.00 0.00 0.00 57 1014.4
20260506084728 12 194 19.3 27.4 0.00 0.00 0.00 56 1014.4
20260506084228 12 232 19.3 27.4 0.00 0.00 0.00 56 1014.4
20260506083728 12 231 19.3 29.0 0.00 0.00 0.00 56 1014.4
20260506083227 12 227 19.3 29.0 0.00 0.00 0.00 55 1014.5
20260506082731 13 245 17.7 29.0 0.00 0.00 0.00 55 1014.4
20260506082727 13 245 19.3 29.0 0.00 0.00 0.00 55 1014.4
20260506081733 13 225 17.7 30.6 0.00 0.00 0.00 54 1014.4
20260506081729 13 217 16.1 30.6 0.00 0.00 0.00 54 1014.4
20260506080729 13 212 19.3 33.8 0.00 0.00 0.00 53 1014.5
20260506080227 13 213 20.9 33.8 0.00 0.00 0.00 53 1014.4
20260506072725 13 230 20.9 33.8 0.00 0.00 0.00 52 1014.2
20260506072225 13 199 20.9 33.8 0.00 0.00 0.00 52 1014.1
20260506071727 13 223 22.5 33.8 0.00 0.00 0.00 52 1013.9
20260506071722 13 211 22.5 33.8 0.00 0.00 0.00 52 1013.8
20260506071335 13 207 22.5 33.8 0.00 0.00 0.00 52 1013.7
20260506070222 13 217 20.9 32.2 0.00 0.00 0.00 52 1013.7
20260506062222 13 209 22.5 32.2 0.00 0.00 0.00 54 1013.4
20260506061723 13 211 22.5 32.2 0.00 0.00 0.00 54 1013.2
20260506061217 13 227 22.5 37.0 0.00 0.00 0.00 53 1013.1
20260506060718 13 254 22.5 37.0 0.00 0.00 0.00 54 1013.0
20260506060223 13 230 22.5 37.0 0.00 0.00 0.00 53 1012.9
20260506060217 13 225 22.5 37.0 0.00 0.00 0.00 53 1012.9
20260506051215 14 198 22.5 33.8 0.00 0.00 0.00 51 1012.8
20260506050716 14 192 20.9 33.8 0.00 0.00 0.00 50 1012.7
20260506050215 15 203 22.5 35.4 0.00 0.00 0.00 50 1012.5
20260506044713 15 209 20.9 35.4 0.00 0.00 0.00 49 1012.5
20260506044213 15 211 19.3 30.6 0.00 0.00 0.00 49 1012.3
20260506043713 15 232 19.3 32.2 0.00 0.00 0.00 49 1012.3
20260506043213 15 194 20.9 32.2 0.00 0.00 0.00 49 1012.2
20260506042713 15 221 22.5 33.8 0.00 0.00 0.00 49 1012.1
20260506042213 15 216 22.5 33.8 0.00 0.00 0.00 49 1012.1
20260506041713 15 184 20.9 35.4 0.00 0.00 0.00 48 1012.0
20260506041213 15 240 22.5 35.4 0.00 0.00 0.00 48 1011.9
20260506040713 15 221 24.1 35.4 0.00 0.00 0.00 48 1011.9
20260506040212 15 213 22.5 35.4 0.00 0.00 0.00 48 1011.8
20260506035713 15 213 22.5 32.2 0.00 0.00 0.00 47 1011.7
20260506035213 15 207 24.1 33.8 0.00 0.00 0.00 47 1011.6
20260506034713 16 220 22.5 33.8 0.00 0.00 0.00 46 1011.5
20260506034218 16 221 22.5 32.2 0.00 0.00 0.00 45 1011.5
20260506034214 16 200 20.9 33.8 0.00 0.00 0.00 45 1011.5
20260506033213 16 229 20.9 33.8 0.00 0.00 0.00 44 1011.3
20260506032713 16 216 19.3 33.8 0.00 0.00 0.00 44 1011.3
20260506032218 17 212 20.9 33.8 0.00 0.00 0.00 43 1011.0
20260506032212 16 198 20.9 33.8 0.00 0.00 0.00 44 1011.0
20260506031213 17 224 20.9 32.2 0.00 0.00 0.00 42 1010.9
20260506030713 17 207 22.5 32.2 0.00 0.00 0.00 42 1010.7
20260506030213 17 225 20.9 32.2 0.00 0.00 0.00 41 1010.7
20260506025713 17 222 20.9 32.2 0.00 0.00 0.00 41 1010.6
20260506025214 18 220 19.3 32.2 0.00 0.00 0.00 40 1010.5
20260506024712 18 230 20.9 32.2 0.00 0.00 0.00 39 1010.6
20260506024212 18 217 20.9 29.0 0.00 0.00 0.00 39 1010.4
20260506023712 18 223 20.9 29.0 0.00 0.00 0.00 38 1010.4
20260506023211 19 226 20.9 29.0 0.00 0.00 0.00 36 1010.3
20260506022711 19 234 19.3 27.4 0.00 0.00 0.00 35 1010.3
20260506022211 20 231 19.3 25.7 0.00 0.00 0.00 35 1010.2
20260506021711 20 246 19.3 25.7 0.00 0.00 0.00 34 1010.1
20260506021215 20 237 17.7 25.7 0.00 0.00 0.00 33 1010.1
20260506021211 20 238 17.7 25.7 0.00 0.00 0.00 33 1010.2
20260506020826 20 247 19.3 27.4 0.00 0.00 0.00 33 1010.1
20260506015711 21 241 17.7 27.4 0.00 0.00 0.00 32 1010.0
20260506015212 21 230 12.9 27.4 0.00 0.00 0.00 32 1009.9
20260506014710 21 237 16.1 30.6 0.00 0.00 0.00 31 1009.6
20260506014215 21 157 17.7 25.7 0.00 0.00 0.00 32 1009.5
20260506014211 21 126 20.9 30.6 0.00 0.00 0.00 33 1009.5
20260506013212 21 142 12.9 24.1 0.00 0.00 0.00 32 1009.6
20260506012712 21 144 12.9 19.3 0.00 0.00 0.00 31 1009.5
20260506012212 22 138 12.9 20.9 0.00 0.00 0.00 31 1009.5
20260506011711 22 174 12.9 20.9 0.00 0.00 0.00 30 1009.5
20260506011212 22 150 11.3 19.3 0.00 0.00 0.00 30 1009.5
20260506010716 22 184 9.7 22.5 0.00 0.00 0.00 29 1009.5
20260506010711 22 221 8.0 17.7 0.00 0.00 0.00 31 1009.5
20260506005712 22 184 8.0 22.5 0.00 0.00 0.00 29 1009.5
20260506005212 22 205 1.6 17.7 0.00 0.00 0.00 29 1009.4
20260506004710 22 300 4.8 17.7 0.00 0.00 0.00 29 1009.3
20260506004210 22 290 9.7 17.7 0.00 0.00 0.00 29 1009.3
20260506003710 22 290 9.7 17.7 0.00 0.00 0.00 29 1009.2
20260506003210 22 58 4.8 22.5 0.00 0.00 0.00 30 1009.2
20260506002711 22 168 3.2 22.5 0.00 0.00 0.00 31 1009.2
20260506002211 22 144 8.0 22.5 0.00 0.00 0.00 31 1009.2
20260506001712 22 264 11.3 22.5 0.00 0.00 0.00 31 1009.2
20260506001210 22 13 8.0 16.1 0.00 0.00 0.00 29 1009.1
20260506000715 22 314 6.4 16.1 0.00 0.00 0.00 29 1009.2
20260506000711 22 338 8.0 16.1 0.00 0.00 0.00 29 1009.3
20260505235710 22 353 8.0 20.9 0.00 0.00 0.00 29 1009.3
20260505235211 22 358 8.0 20.9 0.00 0.00 0.00 29 1009.2
20260505234710 22 22 3.2 16.1 0.00 0.00 0.00 30 1009.1
20260505234210 22 353 3.2 24.1 0.00 0.00 0.00 30 1009.2
20260505233710 22 340 8.0 24.1 0.00 0.00 0.00 29 1009.2
20260505233216 23 353 9.7 27.4 0.00 0.00 0.00 28 1009.3
20260505233211 22 15 9.7 27.4 0.00 0.00 0.00 29 1009.3
20260505232209 23 24 8.0 17.7 0.00 0.00 0.00 29 1009.3
20260505231709 23 78 4.8 16.1 0.00 0.00 0.00 29 1009.3
20260505231209 23 13 6.4 19.3 0.00 0.00 0.00 29 1009.3
20260505230708 23 236 8.0 19.3 0.00 0.00 0.00 29 1009.2
20260505230212 22 170 1.6 11.3 0.00 0.00 0.00 29 1009.4
20260505230208 22 135 4.8 12.9 0.00 0.00 0.00 30 1009.3
20260505225210 22 210 0.0 17.7 0.00 0.00 0.00 29 1009.4
20260505224714 22 234 9.7 22.5 0.00 0.00 0.00 29 1009.5
20260505224710 22 165 4.8 17.7 0.00 0.00 0.00 29 1009.5
20260505223707 22 182 11.3 22.5 0.00 0.00 0.00 29 1009.6
20260505223207 22 126 8.0 19.3 0.00 0.00 0.00 30 1009.6
20260505222707 22 147 6.4 14.5 0.00 0.00 0.00 30 1009.6
20260505222210 22 50 4.8 14.5 0.00 0.00 0.00 28 1009.7
20260505222205 21 78 4.8 14.5 0.00 0.00 0.00 28 1009.7
20260505221202 22 64 6.4 14.5 0.00 0.00 0.00 28 1009.9
20260505220702 22 86 4.8 14.5 0.00 0.00 0.00 28 1010.0
20260505220203 22 111 6.4 14.5 0.00 0.00 0.00 28 1010.0
20260505215703 22 78 8.0 14.5 0.00 0.00 0.00 27 1010.1
20260505215202 23 92 6.4 14.5 0.00 0.00 0.00 27 1010.1
20260505214702 23 61 3.2 14.5 0.00 0.00 0.00 26 1010.2
20260505214206 24 146 4.8 14.5 0.00 0.00 0.00 26 1010.1
20260505214202 24 34 3.2 14.5 0.00 0.00 0.00 26 1010.2
20260505213201 23 257 4.8 14.5 0.00 0.00 0.00 27 1010.2
20260505212705 23 182 4.8 14.5 0.00 0.00 0.00 27 1010.2
20260505212700 23 120 6.4 14.5 0.00 0.00 0.00 27 1010.2
20260505211700 23 195 4.8 12.9 0.00 0.00 0.00 27 1010.2
20260505211201 23 76 6.4 12.9 0.00 0.00 0.00 28 1010.2
20260505210700 22 173 6.4 14.5 0.00 0.00 0.00 29 1010.2
20260505210200 22 122 8.0 16.1 0.00 0.00 0.00 29 1010.2
20260505205658 22 49 8.0 16.1 0.00 0.00 0.00 29 1010.2
20260505205158 22 61 8.0 16.1 0.00 0.00 0.00 29 1010.2
20260505204658 22 103 6.4 16.1 0.00 0.00 0.00 28 1010.3
20260505204159 22 72 4.8 16.1 0.00 0.00 0.00 29 1010.3
20260505203657 22 53 6.4 12.9 0.00 0.00 0.00 29 1010.2
20260505203156 22 26 6.4 14.5 0.00 0.00 0.00 28 1010.3
20260505202657 23 149 4.8 14.5 0.00 0.00 0.00 28 1010.3
20260505202156 23 49 6.4 19.3 0.00 0.00 0.00 27 1010.3
20260505202152 23 142 9.7 22.5 0.00 0.00 0.00 27 1010.4
20260505201152 23 189 8.0 22.5 0.00 0.00 0.00 28 1010.3
20260505200651 22 230 6.4 14.5 0.00 0.00 0.00 29 1010.4
20260505200157 21 231 4.8 17.7 0.00 0.00 0.00 30 1010.5
20260505200153 22 291 4.8 12.9 0.00 0.00 0.00 30 1010.4
20260505195148 21 26 4.8 17.7 0.00 0.00 0.00 30 1010.5
20260505194646 21 51 6.4 17.7 0.00 0.00 0.00 30 1010.6
20260505194146 21 155 8.0 17.7 0.00 0.00 0.00 31 1010.7
20260505193646 21 97 6.4 16.1 0.00 0.00 0.00 31 1010.8
20260505193151 21 38 8.0 22.5 0.00 0.00 0.00 31 1010.8
20260505193146 21 338 8.0 22.5 0.00 0.00 0.00 32 1010.7
20260505192146 21 318 8.0 22.5 0.00 0.00 0.00 31 1010.9
20260505191646 21 308 8.0 22.5 0.00 0.00 0.00 31 1011.1
20260505191146 21 34 6.4 22.5 0.00 0.00 0.00 32 1010.9
20260505190645 21 126 6.4 22.5 0.00 0.00 0.00 32 1010.9
20260505190151 21 13 9.7 22.5 0.00 0.00 0.00 31 1010.9
20260505190146 21 117 9.7 22.5 0.00 0.00 0.00 32 1010.9
20260505185758 22 53 6.4 19.3 0.00 0.00 0.00 29 1010.9
20260505184643 22 242 4.8 9.7 0.00 0.00 0.00 29 1011.0
20260505184144 22 292 4.8 9.7 0.00 0.00 0.00 29 1011.0
20260505183643 22 346 4.8 11.3 0.00 0.00 0.00 29 1011.0
20260505183144 22 258 6.4 11.3 0.00 0.00 0.00 29 1010.9
20260505182643 21 259 4.8 11.3 0.00 0.00 0.00 30 1011.0
20260505182143 21 273 6.4 12.9 0.00 0.00 0.00 30 1010.9
20260505181644 21 164 6.4 12.9 0.00 0.00 0.00 31 1011.0
20260505181145 20 199 4.8 12.9 0.00 0.00 0.00 32 1011.0
20260505180649 19 344 4.8 12.9 0.00 0.00 0.00 34 1011.0
20260505180645 19 54 4.8 12.9 0.00 0.00 0.00 33 1011.0
20260505175645 18 124 4.8 12.9 0.00 0.00 0.00 34 1011.1
20260505175144 19 173 4.8 14.5 0.00 0.00 0.00 34 1011.0
20260505174644 18 340 6.4 14.5 0.00 0.00 0.00 34 1011.0
20260505174144 19 9 8.0 14.5 0.00 0.00 0.00 34 1011.0
20260505173644 19 8 8.0 14.5 0.00 0.00 0.00 33 1010.9
20260505173143 18 342 8.0 14.5 0.00 0.00 0.00 35 1010.9
20260505172644 18 9 8.0 14.5 0.00 0.00 0.00 35 1010.9
20260505172143 18 358 6.4 14.5 0.00 0.00 0.00 35 1010.8
20260505171644 18 9 4.8 14.5 0.00 0.00 0.00 36 1010.9
20260505171148 18 55 4.8 12.9 0.00 0.00 0.00 35 1010.9
20260505171144 18 26 4.8 12.9 0.00 0.00 0.00 35 1011.0
20260505170144 18 130 4.8 11.3 0.00 0.00 0.00 35 1010.9
20260505165644 18 59 3.2 8.0 0.00 0.00 0.00 36 1010.9
20260505165143 17 248 3.2 6.4 0.00 0.00 0.00 37 1010.9
20260505164643 17 124 1.6 12.9 0.00 0.00 0.00 37 1010.9
20260505164144 17 63 3.2 12.9 0.00 0.00 0.00 38 1010.9
20260505163643 17 78 6.4 12.9 0.00 0.00 0.00 38 1010.9
20260505163144 17 86 6.4 12.9 0.00 0.00 0.00 39 1010.8
20260505162643 17 62 6.4 12.9 0.00 0.00 0.00 39 1010.8
20260505162144 17 49 4.8 11.3 0.00 0.00 0.00 39 1010.7
20260505161643 17 60 3.2 9.7 0.00 0.00 0.00 39 1010.6
20260505161144 16 72 4.8 9.7 0.00 0.00 0.00 40 1010.6
20260505160643 16 319 4.8 9.7 0.00 0.00 0.00 40 1010.5